| time (UTC) | temp C | wind direction | speed KPH | gust KPH | rain 1hr cm | rain 24hr cm | rain mn cm | humidity % | barometer mb |
| 20260503173004 | 11 | 265 | 16.1 | 37.0 | 0.00 | 0.00 | 0.00 | 28 | 1016.5 |
| 20260503171503 | 11 | 302 | 17.7 | 33.8 | 0.00 | 0.00 | 0.00 | 30 | 1016.5 |
| 20260503081524 | 1 | 282 | 4.8 | 8.0 | 0.00 | 0.00 | 0.00 | 69 | 1016.5 |
| 20260503071505 | 2 | 284 | 3.2 | 6.4 | 0.00 | 0.00 | 0.00 | 68 | 1016.2 |
| 20260503060118 | 2 | 325 | 1.6 | 4.8 | 0.00 | 0.00 | 0.00 | 67 | 1016.2 |
| 20260503054613 | 2 | 325 | 1.6 | 4.8 | 0.00 | 0.00 | 0.00 | 67 | 1016.3 |
| 20260503053055 | 2 | 325 | 0.0 | 4.8 | 0.00 | 0.00 | 0.00 | 67 | 1016.5 |
| 20260503051553 | 2 | 325 | 1.6 | 4.8 | 0.00 | 0.00 | 0.00 | 67 | 1016.6 |
| 20260503050053 | 2 | 327 | 1.6 | 4.8 | 0.00 | 0.00 | 0.00 | 67 | 1016.6 |
| 20260503044552 | 2 | 327 | 3.2 | 6.4 | 0.00 | 0.00 | 0.00 | 67 | 1016.6 |
| 20260503043050 | 2 | 333 | 3.2 | 6.4 | 0.00 | 0.00 | 0.00 | 66 | 1016.6 |
| 20260503041549 | 2 | 333 | 1.6 | 4.8 | 0.00 | 0.00 | 0.00 | 66 | 1016.7 |
| 20260503040045 | 2 | 333 | 0.0 | 4.8 | 0.00 | 0.00 | 0.00 | 66 | 1016.6 |
| 20260503034544 | 2 | 333 | 0.0 | 3.2 | 0.00 | 0.00 | 0.00 | 66 | 1016.7 |
| 20260503033044 | 2 | 333 | 1.6 | 4.8 | 0.00 | 0.00 | 0.00 | 66 | 1016.7 |
| 20260503031546 | 2 | 333 | 3.2 | 4.8 | 0.00 | 0.00 | 0.00 | 65 | 1016.5 |
| 20260503030047 | 3 | 333 | 3.2 | 6.4 | 0.00 | 0.00 | 0.00 | 64 | 1016.6 |
| 20260503024541 | 3 | 333 | 0.0 | 6.4 | 0.00 | 0.00 | 0.00 | 63 | 1016.8 |
| 20260503023040 | 3 | 334 | 1.6 | 4.8 | 0.00 | 0.00 | 0.00 | 63 | 1017.0 |
| 20260503021542 | 3 | 334 | 3.2 | 6.4 | 0.00 | 0.00 | 0.00 | 63 | 1017.0 |
| 20260503020039 | 3 | 332 | 0.0 | 6.4 | 0.00 | 0.00 | 0.00 | 63 | 1016.8 |
| 20260503014537 | 3 | 333 | 1.6 | 6.4 | 0.00 | 0.00 | 0.00 | 62 | 1016.8 |
| 20260503013037 | 3 | 334 | 1.6 | 4.8 | 0.00 | 0.00 | 0.00 | 62 | 1016.8 |
| 20260503011536 | 3 | 334 | 0.0 | 6.4 | 0.00 | 0.00 | 0.00 | 63 | 1016.7 |
| 20260503010037 | 3 | 336 | 1.6 | 6.4 | 0.00 | 0.00 | 0.00 | 63 | 1016.7 |
| 20260503004534 | 4 | 338 | 0.0 | 8.0 | 0.00 | 0.00 | 0.00 | 63 | 1016.5 |
| 20260503003036 | 4 | 346 | 0.0 | 4.8 | 0.00 | 0.00 | 0.00 | 63 | 1016.3 |
| 20260503001532 | 4 | 346 | 1.6 | 4.8 | 0.00 | 0.00 | 0.00 | 62 | 1016.3 |
| 20260503000033 | 4 | 346 | 1.6 | 6.4 | 0.00 | 0.00 | 0.00 | 62 | 1016.1 |
| 20260502234546 | 4 | 346 | 3.2 | 6.4 | 0.00 | 0.03 | 0.00 | 61 | 1016.1 |
| 20260502233029 | 4 | 345 | 3.2 | 8.0 | 0.00 | 0.03 | 0.00 | 60 | 1015.9 |
| 20260502231529 | 5 | 343 | 4.8 | 16.1 | 0.00 | 0.03 | 0.00 | 60 | 1015.8 |
| 20260502230029 | 5 | 5 | 6.4 | 17.7 | 0.00 | 0.03 | 0.00 | 59 | 1016.0 |
| 20260502224528 | 5 | 327 | 4.8 | 14.5 | 0.00 | 0.10 | 0.00 | 60 | 1016.0 |
| 20260502223028 | 5 | 355 | 4.8 | 17.7 | 0.00 | 0.10 | 0.00 | 60 | 1016.0 |
| 20260502221528 | 5 | 320 | 8.0 | 16.1 | 0.00 | 0.10 | 0.00 | 61 | 1015.9 |
| 20260502220026 | 5 | 306 | 6.4 | 20.9 | 0.00 | 0.10 | 0.00 | 61 | 1016.0 |
| 20260502214538 | 5 | 5 | 6.4 | 16.1 | 0.00 | 0.10 | 0.00 | 62 | 1016.0 |
| 20260502213025 | 5 | 347 | 6.4 | 19.3 | 0.00 | 0.10 | 0.00 | 62 | 1015.8 |
| 20260502211533 | 5 | 355 | 4.8 | 16.1 | 0.00 | 0.10 | 0.00 | 63 | 1015.7 |
| 20260502210026 | 5 | 321 | 3.2 | 14.5 | 0.00 | 0.10 | 0.00 | 64 | 1015.6 |
| 20260502204523 | 5 | 355 | 1.6 | 12.9 | 0.00 | 0.23 | 0.00 | 65 | 1015.6 |
| 20260502203022 | 5 | 360 | 8.0 | 17.7 | 0.00 | 0.23 | 0.00 | 64 | 1015.7 |
| 20260502201522 | 5 | 331 | 6.4 | 16.1 | 0.00 | 0.23 | 0.00 | 63 | 1015.6 |
| 20260502200021 | 5 | 350 | 6.4 | 16.1 | 0.00 | 0.23 | 0.00 | 65 | 1015.7 |
| 20260502194520 | 5 | 335 | 3.2 | 9.7 | 0.00 | 0.33 | 0.00 | 66 | 1015.8 |
| 20260502193020 | 5 | 308 | 9.7 | 20.9 | 0.00 | 0.33 | 0.00 | 65 | 1015.7 |
| 20260502191521 | 5 | 5 | 3.2 | 14.5 | 0.00 | 0.33 | 0.00 | 67 | 1016.0 |
| 20260502190019 | 5 | 346 | 1.6 | 14.5 | 0.00 | 0.33 | 0.00 | 65 | 1016.0 |
| 20260502184518 | 5 | 329 | 8.0 | 19.3 | 0.00 | 0.41 | 0.00 | 66 | 1016.0 |
| 20260502183018 | 5 | 5 | 8.0 | 16.1 | 0.00 | 0.41 | 0.00 | 66 | 1016.0 |
| 20260502181516 | 5 | 336 | 4.8 | 12.9 | 0.00 | 0.41 | 0.00 | 67 | 1016.0 |